Logo
Paul S. Highland's Collection
 
9/25/2017
 
 
 
 
Click on an Album to view pictures

Album NameDatesAuthorCreatedUpdated
UP Lompoc Industrial Lead01/01/2001-12/31/2021Paul S. Highland6/20/2010 3:01:27 PM6/20/2010 3:01:27 PM
Gilroy to San Jose CA01/01/2001-12/31/2021Paul S. Highland5/26/2010 7:24:04 PM8/10/2010 11:28:04 PM
BNSF Stockton Sub01/01/2001-12/31/2019Paul S. Highland5/19/2009 1:28:40 AM5/19/2009 1:28:40 AM
Railtown 1897 State Park01/01/2001-12/31/2021Paul S. Highland7/19/2008 12:30:17 PM7/19/2008 1:31:58 PM
Napa Valley Railroad01/01/2001-12/31/2011Paul S. Highland7/16/2007 11:52:35 AM7/19/2008 1:49:54 PM
Stockton CA01/01/2001-12/31/2019Paul S. Highland3/13/2007 5:45:38 PM3/25/2009 4:28:53 PM
Tehachapi CA01/01/2001-12/31/2011Paul S. Highland10/17/2006 1:35:54 AM10/18/2006 10:16:58 AM
Santa Cruz and Felton CA01/01/2000-12/31/2011Paul S. Highland10/16/2006 10:14:15 AM3/6/2007 3:06:28 PM
San Miguel to San Ardo CA01/01/2001-12/31/2011Paul S. Highland7/23/2006 12:03:36 PM11/10/2008 11:31:12 AM
Santa Margarita Ranch01/01/2001-12/31/2011Paul S. Highland5/14/2006 11:35:08 AM6/3/2008 11:13:25 AM
UP Fresno Sub01/01/2001-12/31/2011Paul S. Highland4/27/2006 11:19:38 AM11/12/2008 11:07:21 AM
San Joaquin Valley RR01/01/2001-12/31/2029Paul S. Highland11/25/2005 10:15:12 AM6/27/2013 12:44:56 AM
Salinas to Watsonville Junction CA01/01/2001-12/31/2011Paul S. Highland11/7/2005 12:29:03 PM11/4/2007 11:38:52 AM
UP Coast Sub01/01/2001-12/31/2021Paul S. Highland10/29/2005 12:48:39 AM9/7/2012 3:09:54 PM
Colima & Silla01/01/2001-12/31/2011Paul S. Highland10/29/2005 12:19:54 AM10/31/2005 2:54:47 PM
BNSF Bakersfield Sub01/01/2001-12/31/2019Paul S. Highland8/28/2005 1:29:53 PM11/30/2010 1:18:16 PM
Fillmore CA01/01/2001-12/31/2011Paul S. Highland4/17/2005 12:09:58 AM4/29/2007 12:50:10 PM
Bitter Creek Western01/01/2001-12/31/2011Paul S. Highland4/17/2005 12:04:48 AM4/26/2007 1:08:02 PM
Atascadero CA01/01/2001-12/31/2021Paul S. Highland3/10/2005 1:21:28 AM12/21/2008 1:24:15 PM
Grover Beach CA01/01/2001-12/31/2011Paul S. Highland3/7/2005 2:57:46 PM1/21/2007 11:34:53 AM
Santa Margarita CA01/01/2001-12/31/2021Paul S. Highland3/7/2005 2:23:53 PM12/21/2008 1:02:02 PM
Fullerton CA01/01/2001-12/31/2011Paul S. Highland3/7/2005 2:17:41 PM10/31/2005 2:43:48 PM
UP Santa Barbara Sub01/01/2001-12/31/2011Paul S. Highland3/6/2005 10:57:44 AM8/4/2008 1:21:50 PM
Guadalupe and Betteravia CA01/01/2001-12/31/2011Paul S. Highland3/6/2005 2:04:17 AM7/14/2010 2:04:17 PM
Northwestern Pacific01/01/2001-12/31/2011Paul S. Highland1/29/2005 12:10:42 AM11/8/2005 11:19:01 AM
Templeton CA01/01/2001-12/31/2011Paul S. Highland1/24/2005 3:05:22 PM8/24/2008 10:44:52 AM
San Luis Obispo CA01/01/2001-12/31/2011Paul S. Highland1/18/2005 12:28:35 PM8/12/2013 12:29:37 AM
Paso Robles CA01/01/2001-12/31/2011Paul S. Highland1/17/2005 11:59:06 AM1/18/2009 11:40:01 PM

Site Design ©2001-2016 Tim Huemmer
Photos © respective authors
  Contact: info@rrpicturearchives.net